Regional Weather Roundup
Issued by NWS Charleston, WV

Home | Current Version | Previous Version | Graphics & Text | Print | Product List | Glossary On
Versions: 1 2 3 4 5 6 7 8 9 10 11 12 13 14 15 16 17 18 19 20 21 22 23 24 25 26 27 28 29 30 31 32 33 34 35 36 37 38 39 40 41 42 43 44 45 46 47 48 49 50
000
ASUS41 KRLX 171910
RWRRLX
West Virginia Regional Weather Roundup
National Weather Service Charleston WV
300 PM EDT WED SEP 17 2014

Note: "fair" indicates few or no clouds below 12,000 feet with no
significant weather and/or obstructions to visibility.

WVZ003-172000-
Northern Panhandle of West Virginia

CITY           SKY/WX    TMP DP  RH WIND       PRES   REMARKS
WHEELING       MOSUNNY   68  48  48 SW6       30.00F
$$

WVZ009-172000-
Northwest West Virginia

CITY           SKY/WX    TMP DP  RH WIND       PRES   REMARKS
PARKERSBURG    MOSUNNY   69  50  50 VRB5      30.02F
$$

WVZ006-172000-
Western West Virginia

CITY           SKY/WX    TMP DP  RH WIND       PRES   REMARKS
HUNTINGTON     PTSUNNY   67  55  65 S3        30.00S
$$

WVZ015-172000-
West Central West Virginia

CITY           SKY/WX    TMP DP  RH WIND       PRES   REMARKS
CHARLESTON     MOSUNNY   70  57  63 VRB5      29.99F
$$

WVZ031-172000-
North Central West Virginia

CITY           SKY/WX    TMP DP  RH WIND       PRES   REMARKS
CLARKSBURG     MOSUNNY   71  50  47 MISG      29.99F
MORGANTOWN     MOSUNNY   72  48  42 VRB3      30.00F
$$

WVZ035-042-045-172000-
South Central West Virginia

CITY           SKY/WX    TMP DP  RH WIND       PRES   REMARKS
BECKLEY        MOSUNNY   69  53  56 S7        30.01F
BLUEFIELD      MOSUNNY   68  53  58 VRB5      30.03F
LEWISBURG      PTSUNNY   68  52  56 SE3       30.02F
$$

WVZ047-172000-
Northern Mountains of West Virginia

CITY           SKY/WX    TMP DP  RH WIND       PRES   REMARKS
ELKINS         MOSUNNY   70  50  49 MISG      29.99F
$$

WVZ052-172000-
Eastern Panhandle of West Virginia

CITY           SKY/WX    TMP DP  RH WIND       PRES   REMARKS
MARTINSBURG    MOSUNNY   72  44  36 CALM      29.99F
PETERSBURG     PTSUNNY   74  46  36 NE6       29.98F
$$


USA.gov is the U.S. government's official web portal to all federal, state and local government web resources and services.